This is the latest recevied weather packets stored in our database for station/object KW6V-15. If no packets are shown the sender has not sent any weather packets the latest 10 day(s).
| Time | Temp. | Humidity | Pressure | Rain* | Wind** | Luminosity | Snow |
|---|---|---|---|---|---|---|---|
| 1788323450 | 13.33° C | 90% | 1015.6 hPa | 0 mm | - | - | - |
| 1788321668 | 14.44° C | 89% | 1015.4 hPa | 0 mm | - | - | - |
| 1788319860 | 15° C | 89% | 1014.6 hPa | 0 mm | - | - | - |
| 1788318052 | 15.56° C | 88% | 1015.2 hPa | 0 mm | - | - | - |
| 1788316232 | 16.11° C | 87% | 1015.7 hPa | 0 mm | - | - | - |
| 1788314440 | 16.11° C | 86% | 1015.5 hPa | 0 mm | - | - | - |
| 1788312664 | 16.11° C | 86% | 1015.9 hPa | 0 mm | - | - | - |
| 1788310835 | 16.67° C | 85% | 1016.1 hPa | 0 mm | - | - | - |
| 1788309051 | 17.22° C | 83% | 1016.1 hPa | 0 mm | - | - | - |
| 1788307238 | 17.78° C | 80% | 1015.7 hPa | 0 mm | - | - | - |
| 1788305428 | 20° C | 74% | 1015.5 hPa | 0 mm | - | - | - |
| 1788303642 | 20° C | 73% | 1015.2 hPa | 0 mm | - | - | - |
| 1788301864 | 20.56° C | 74% | 1015.4 hPa | 0 mm | - | - | - |
| 1788300050 | 20.56° C | 75% | 1015.7 hPa | 0 mm | - | - | - |
| 1788298264 | 19.44° C | 76% | 1015.9 hPa | 0 mm | - | - | - |
| 1788296476 | 17.78° C | 84% | 1015.9 hPa | 0 mm | - | - | - |
| 1788294657 | 17.78° C | 84% | 1016 hPa | 0 mm | - | - | - |
| 1788292858 | 17.78° C | 83% | 1016 hPa | 0 mm | - | - | - |
| 1788291035 | 18.89° C | 83% | 1016 hPa | 0 mm | - | - | - |
| 1788289237 | 17.22° C | 87% | 1016 hPa | 0 mm | - | - | - |
| 1788287433 | 16.67° C | 88% | 1016 hPa | 0 mm | - | - | - |
| 1788285666 | 16.11° C | 91% | 1015.7 hPa | 0 mm | - | - | - |
| 1788283851 | 15.56° C | 91% | 1015.6 hPa | 0 mm | - | - | - |
| 1788282051 | 15.56° C | 92% | 1015.2 hPa | 0 mm | - | - | - |
| 1788280243 | 15° C | 92% | 1015.3 hPa | 0 mm | - | - | - |
* Rain latest hour (hover to see other rain measurements)
** Current wind speed in m/s (hover to see current wind gust speed)